This is the latest recevied weather packets stored in our database for station/object SP7WMI-13. If no packets are shown the sender has not sent any weather packets the latest 10 day(s).
| Time | Temp. | Humidity | Pressure | Rain* | Wind** | Luminosity | Snow |
|---|---|---|---|---|---|---|---|
| 1777580400 | 12.22° C | 46% | 1025.6 hPa | 0 mm | - | - | - |
| 1777579497 | 12.22° C | 46% | 1025.7 hPa | 0 mm | - | - | - |
| 1777578594 | 12.22° C | 44% | 1025.7 hPa | 0 mm | - | - | - |
| 1777577691 | 12.78° C | 44% | 1025.7 hPa | 0 mm | - | - | - |
| 1777576788 | 12.78° C | 44% | 1025.7 hPa | 0 mm | - | - | - |
| 1777575885 | 12.78° C | 43% | 1025.6 hPa | 0 mm | - | - | - |
| 1777574981 | 12.78° C | 43% | 1025.6 hPa | 0 mm | - | - | - |
| 1777574079 | 12.78° C | 42% | 1025.8 hPa | 0 mm | - | - | - |
| 1777573175 | 12.78° C | 42% | 1025.8 hPa | 0 mm | - | - | - |
| 1777572273 | 12.78° C | 41% | 1025.6 hPa | 0 mm | - | - | - |
| 1777570466 | 13.33° C | 40% | 1025.4 hPa | 0 mm | - | - | - |
| 1777569563 | 13.33° C | 40% | 1025.5 hPa | 0 mm | - | - | - |
| 1777568660 | 13.33° C | 39% | 1025.5 hPa | 0 mm | - | - | - |
| 1777567757 | 13.33° C | 39% | 1025.5 hPa | 0 mm | - | - | - |
| 1777566854 | 13.33° C | 38% | 1025.6 hPa | 0 mm | - | - | - |
| 1777565951 | 13.89° C | 38% | 1025.8 hPa | 0 mm | - | - | - |
| 1777565048 | 13.89° C | 37% | 1025.8 hPa | 0 mm | - | - | - |
| 1777564145 | 14.44° C | 36% | 1025.8 hPa | 0 mm | - | - | - |
| 1777563242 | 15° C | 36% | 1025.7 hPa | 0 mm | - | - | - |
| 1777562339 | 14.44° C | 36% | 1025.9 hPa | 0 mm | - | - | - |
| 1777561436 | 14.44° C | 36% | 1026 hPa | 0 mm | - | - | - |
| 1777560533 | 13.33° C | 37% | 1026 hPa | 0 mm | - | - | - |
| 1777559630 | 12.78° C | 37% | 1026.2 hPa | 0 mm | - | - | - |
| 1777558727 | 13.33° C | 36% | 1026.6 hPa | 0 mm | - | - | - |
| 1777557824 | 13.33° C | 35% | 1026.5 hPa | 0 mm | - | - | - |
* Rain since midnight (hover to see other rain measurements)
** Current wind speed in m/s (hover to see current wind gust speed)